カタログに戻る

SAUDICOMSAT 5

運用中通信SSO
NORAD 31124·PAYLOAD·🇸🇦 Saudi Arabia

打ち上げ Apr 17, 2007 から Baikonur Cosmodrome

Loading…

次のパス (今後24時間)

TLE

最新Source: Space-Track

元期: Sep 14, 2026, 08:43 UTC

1 31124U 07012H   26257.36361351  .00000392  00000-0  76146-4 0  9993
2 31124  98.3603 234.1042 0046680 203.6495 156.2563 14.68255219 36685

AllMySatでSAUDICOMSAT 5をリアルタイム追跡

Download on the App Store